Regional Weather Roundup
Issued by NWS

Home | Current Version | Previous Version | Graphics & Text | Print | Product List | Glossary On
Versions: 1 2 3 4 5 6 7 8 9 10 11 12 13 14 15 16 17 18 19 20 21 22 23 24 25 26 27 28 29 30 31 32 33 34 35 36 37 38 39 40 41 42 43 44 45 46 47 48 49 50
000
ASUS45 KPSR 201010
RWRAZ

ARIZONA REGIONAL HOURLY WEATHER ROUNDUP
NATIONAL WEATHER SERVICE PHOENIX AZ
300 AM MST SAT SEP 20 2014

NOTE: FAIR INDICATES FEW OR NO CLOUDS BELOW 12,000 FEET WITH NO
SIGNIFICANT WEATHER AND/OR OBSTRUCTIONS TO VISIBILITY.

AZZ001>003-036-201100-
NORTHWEST ARIZONA

CITY           SKY/WX    TMP DP  RH WIND       PRES   REMARKS
BULLHEAD CITY  PTCLDY    82  48  30 CALM      29.81S
KINGMAN        CLEAR     63  48  58 SE5       30.00S
$$

AZZ004>008-015-016-018-201100-
NORTH CENTRAL ARIZONA

CITY           SKY/WX    TMP DP  RH WIND       PRES   REMARKS
GRAND CANYON   CLEAR     49  48  97 NE5       30.21S
PRESCOTT       CLEAR     60  49  66 S6        30.11S
FLAGSTAFF        N/A     50  47  89 MISG      30.23S
PAYSON         PTCLDY    63  57  82 CALM      30.12S
PAGE           CLEAR     72  50  45 SW3       30.03S
$$

AZZ009>014-017-201100-
NORTHEAST ARIZONA

CITY           SKY/WX    TMP DP  RH WIND       PRES   REMARKS
WINSLOW        CLEAR     60  55  83 SW3       30.08S
SAINT JOHNS    CLEAR     63  55  75 CALM      30.12R
WINDOW ROCK    CLEAR     47  41  80 SW3       30.20S
SHOW LOW       CLEAR     57  54  88 S6        30.20S
$$

AZZ023-201100-
GREATER PHOENIX AREA

CITY           SKY/WX    TMP DP  RH WIND       PRES   REMARKS
PHOENIX        CLEAR     85  62  46 E6        29.81S
BUCKEYE          N/A     77  63  61 N5        29.83S
LUKE AFB       CLEAR     81  63  53 W2        29.81S
DEER VALLEY    CLEAR     78  62  57 E5        29.84R
SCOTTSDALE     CLEAR     81  64  56 CALM      29.86R
MESA-GATEWAY   CLEAR    N/A N/A N/A SE6       29.86F
$$

AZZ027-028-201100-
SOUTHWEST MARICOPA COUNTY AND PINAL COUNTY

CITY           SKY/WX    TMP DP  RH WIND       PRES   REMARKS
CASA GRANDE    PTCLDY    79  68  69 CALM      29.86S
$$

AZZ503-504-507>509-201100-
SOUTHEAST ARIZONA

CITY           SKY/WX    TMP DP  RH WIND       PRES   REMARKS
TUCSON         CLEAR     74  69  85 SE3       29.95F
DAVIS-MONTHAN  CLEAR     73  68  84 SE3       29.94S
NOGALES        PTCLDY    67  64  90 NE5       30.02F
SIERRA VISTA   PTCLDY    67  63  87 W7        30.07F
DOUGLAS        CLEAR     66  63  90 E6        30.04S
SAFFORD        CLEAR     70  66  87 SE6       29.95S
$$

AZZ020-021-025-026-031-201100-
SOUTHWEST ARIZONA

CITY           SKY/WX    TMP DP  RH WIND       PRES   REMARKS
YUMA           CLEAR     84  70  62 S3        29.77S
$$

CAZ031-033-041-043-047-048-061-201100-
SOUTHERN CALIFORNIA

CITY           SKY/WX    TMP DP  RH WIND       PRES   REMARKS
DOWNTOWN L.A.  CLEAR     67  62  84 CALM      29.89S
L.A. AIRPORT   PTCLDY    66  63  89 CALM      29.90S
SAN DIEGO      CLOUDY    71  61  70 CALM      29.91F
BURBANK        CLEAR     66  60  81 CALM      29.90S
ONTARIO        PTCLDY    67  60  78 CALM      29.90F
RIVERSIDE      CLEAR     67  60  78 CALM      29.90F
PALM SPRINGS   CLEAR     80  58  46 NW10      29.81S
EL CENTRO NAS  CLEAR     80  56  43 W3        29.74F
IMPERIAL       CLEAR     80  58  46 CALM      29.74F
BLYTHE         CLEAR     82  49  31 W5        29.78R
NEEDLES        CLEAR     82  52  35 SE3       29.81S
$$

NVZ020-UTZ003-201100-
SOUTHERN NEVADA-UTAH

CITY           SKY/WX    TMP DP  RH WIND       PRES   REMARKS
LAS VEGAS      MOCLDY    80  42  25 SW8       29.86S
SALT LAKE CITY CLEAR     60  50  69 SW5       30.11S
$$

NMZ009-TXZ055-201100-
NEW MEXICO-WEST TEXAS

CITY           SKY/WX    TMP DP  RH WIND       PRES   REMARKS
ALBUQUERQUE    CLEAR     66  58  75 NW5       30.12S
EL PASO        PTCLDY    70  65  84 CALM      30.00S
$$


........................KEY........................
SKY/WX - SKY CONDITION/WEATHER
TMP    - TEMPERATURE IN FAHRENHEIT
DP     - DEW POINT IN FAHRENHEIT
RH     - RELATIVE HUMIDITY IN PERCENT
WIND   - DIRECTION AND SPEED IN MILES PER HOUR (MPH)
VRB    - VARIABLE WIND DIRECTION
PRES   - MEAN SEA LEVEL PRESSURE IN INCHES OF MERCURY
         F - FALLING PRESSURE   R - RISING PRESSURE
         S - STEADY PRESSURE
VSB    - VISIBILITY IN MILES
HX     - HEAT INDEX IN FAHRENHEIT
WCI    - WIND CHILL INDEX IN FAHRENHEIT
TC     - TEMPERATURE IN CELSIUS WHICH IS ALSO KNOWN AS
         TEMPERATURE IN CENTIGRADE
AFB    - AIR FORCE BASE
         LUKE AFB IS LUKE AIR FORCE BASE
         DAVIS-MONTHAN IS DAVIS-MONTHAN AIR FORCE BASE
NAS    - NAVAL AIR STATION
         EL CENTRO NAS IS EL CENTRO NAVAL AIR STATION
N/A    - NOT AVAILABLE



USA.gov is the U.S. government's official web portal to all federal, state and local government web resources and services.